Find STARLINK-38124

NORAD ID: 100008 Int'l Des: 2026-160H Owner: SPXS Country: US Constellation: starlink operational

現在のビュー

3D地球を読み込み中...

About STARLINK-38124

STARLINK-38124 (NORAD 100008) is a starlink constellation satellite (v2 mini) launched Jul 14, 2026 by SPXS of US. with a mass of 575.00 kg.

次回通過

Passes for default location (London). Set your location on the main map for personalized predictions.

高度履歴

Loading altitude history...

軌道要素

1 A0008U 26160H 26224.60826857 .00115608 00000-0 83741-3 0 9998
2 A0008 69.9985 305.2751 0003987 276.4012 83.6732 15.72935909 5866
Epoch: Aug 12, 2026 • Age: 25 hours

現在のステータス

高度 355.5 km
遠地点 / 近地点 N/A
速度 7.70 km/s
衛星直下点 33.53°N, 88.05°W
打ち上げ日 Jul 14, 2026
運用期間 30 days
タイプ internet

技術仕様

分類 Payload
質量 575.00 kg
乾燥質量 530.00 kg
総質量 575.00 kg
長さ 0.30 m
直径 4.10 m
スパン 29.00 m
形状 Box + pan
製造者 SPXS
バスタイプ Starlink V2MO
フェーズステータス In Orbit
所有者/国 SPXS/US

Most Searched